DELTA 1 DEB

Satellite information

Favourite Embed

Satellite Type and Status

DEBRISIN ORBIT

Key statistics

Satellite DELTA 1 DEB at a glance.

Uptime

18040

Days in orbit

Revolutions

≈ 12.1

Per day

Orbit

SSO

Sun Synchronous Orbit

Inclination

102.8

Latest

Satellite identification and parameters

Extended collection of information and parameters for DELTA 1 DEB.

Object identification

Identified? True

Debris? True

Object name: DELTA 1 DEB

International designator: 1976-077H

Object number (NORAD): 10647

Object ID (CCSDS): 10647

Country: UNITED STATES OF AMERICA (US)

Current information (Y/N): Y

RCS size: MEDIUM

Orbital parameters

Period: 118.88 minutes

Inclination: 102.7603 deg

SMA: 8008.789 km

Apoapsis: 1762.344 km

Periapsis: 1498.964 km

RAAN: 86.9232 deg

Eccentricy: 0.01644323

Argument of periapsis: 74.1315 deg

Mean anomaly: 307.2721 deg

Mean motion: 12.11302175 rev/day

Mean motion (dot): -0.00000007 rev/day2

B* drag term: 0.00038169834 1/REarth

Two-line elements (TLE)

Creation date: Dec. 18, 2025, 8:02 p.m.

Reference frame: TEME

Reference center: EARTH

Epoch: Dec. 18, 2025, 1:02 p.m. UTC

TLE line 0: 0 DELTA 1 DEB

TLE line 1: 1 10647U 76077H 25352.54369594 -.00000007 00000-0 38170-3 0 9997

TLE line 2: 2 10647 102.7603 86.9232 0164432 74.1315 307.2721 12.11302175184356

Live tracking on map

Real-time ground track for satellite DELTA 1 DEB.

In-orbit conjunctions

A list of the most updated potential collisions computed for object DELTA 1 DEB.

Target Orbit TCA Probability of collision Miss distance Type
COSMOS 1287 LEO 2024-10-17 13:39:04 0.0001236723 603.0 (m) PAYLOAD

Associated space launch

Meteorological satellite using radiometric imaging

DELTA 1 DEB was lifted into orbit during the mission ‘Delta 2310 | NOAA 5’, on board a Delta 2310 space rocket.

The launch took place on July 29, 1976, 5:07 p.m. from Space Launch Complex 2W.

For more information about the launch, click the button.

Launch to space Delta 2310 | NOAA 5
Delta 2310 | NOAA 5

Agency: N/A

Status: Launch Successful

Launch date: July 29, 1976, 5:07 p.m. UTC

Rocket: Delta 2310

Launch pad: Space Launch Complex 2W

Location: Vandenberg SFB, CA, USA

...

Latest news about this satellite

There are no fresh news available about this satellite. Check back as we update our databases every day.


Newsletter sign-up

Weekly statistics, charts and insights to help you stay on top of the space industry.